#timestamp,LO_Frequency,Hit,StdDev 
1584174695.0,286046935.7,P
1584174695.9,286046935.7,P
1584174715.8,286046934.7,P
1584174735.6,286046933.1,Y
1584174755.4,286046996.7,P
1584174775.3,286046996.6,N
1584174795.1,286046997.4,N
1584174815.9,286046997.1,N
1584174835.7,286046997.3,N
1584174855.5,286046996.2,N
1584174875.4,286046993.3,N
1584174895.2,286046993.4,N
1584174915.0,286046994.5,N
1584174916.0,286046994.5,N
1584174935.8,286046994.6,N
1584174955.6,286046992.0,N
1584174975.5,286046991.0,N
1584174995.3,286046991.1,N
1584175015.1,286046991.1,N
1584175035.9,286046988.9,N
1584175055.7,286046989.2,N
1584175075.6,286046990.0,N
1584175095.4,286046989.5,N
1584175115.2,286046987.1,N
1584175135.1,286046989.8,N
1584175136.0,286046989.8,N
1584175155.8,286046987.3,N
1584175175.6,286046988.4,N
1584175195.5,286046985.5,N
1584175215.3,286046986.2,N
1584175235.2,286046986.4,N
1584175255.9,286046985.2,N
1584175275.7,286046983.6,N
1584175295.6,286046979.0,N
1584175315.4,286046979.7,Y
1584175335.2,286046987.7,P
1584175355.1,286046985.3,P
1584175356.0,286046985.3,P
1584175375.8,286046986.5,Y
1584175395.7,286047000.6,P
1584175415.5,286047000.2,N
1584175435.3,286047000.5,N
1584175455.2,286047000.7,N
1584175475.0,286047002.8,N
1584175475.9,286047002.8,N
1584175525.8,286047000.2,E
1584175535.7,286046998.7,N
1584175555.5,286046999.4,P
1584175575.4,286047000.0,N
1584175595.2,286047002.3,Y
1584175615.1,286047002.0,P
1584175616.0,286047002.0,N
1584175635.8,286047004.0,P
1584175655.6,286047001.5,N
1584175675.5,286047001.0,N
1584175695.3,286047001.1,N
1584175715.2,286047000.3,N
1584175735.9,286046999.9,N
1584175755.7,286047000.3,N
1584175775.6,286047000.2,N
1584175795.4,286046998.1,N
1584175815.2,286046998.7,N
1584175835.1,286046999.3,N
1584175836.0,286046999.3,N
1584175855.8,286046999.2,N
1584175875.7,286046998.7,N
1584175895.5,286046997.1,N
1584175915.3,286046995.1,Y
1584175935.2,286046995.7,P
1584175955.0,286046994.4,N
1584175955.9,286046994.4,N
1584175975.8,286046990.0,Y
1584175995.6,286046989.1,P
1584176015.4,286046991.3,N
1584176035.3,286046990.5,P
1584176055.1,286046992.9,N
1584176075.9,286046991.4,Y
1584176095.7,286046996.7,P
1584176115.5,286046995.1,N
1584176135.4,286046995.9,N
1584176155.2,286046995.1,N
1584176175.0,286046997.7,N
1584176175.9,286046997.7,N
1584176195.8,286046996.3,N
1584176215.6,286046994.4,Y
1584176235.5,286046995.0,P
1584176255.3,286046997.5,P
1584176275.1,286046997.4,N
1584176295.9,286046998.5,N
1584176315.7,286046996.5,N
1584176335.6,286046997.4,N
1584176355.4,286046994.9,Y
1584176375.2,286047000.6,P
1584176395.1,286047000.5,N
1584176396.0,286047000.5,N
